Regional Weather Roundup
Issued by NWS Cleveland, OH

Home | Current Version | Previous Version | Text Only | Print | Product List | Glossary Off
Versions: 1 2 3 4 5 6 7 8 9 10 11 12 13 14 15 16 17 18 19 20 21 22 23 24 25 26 27 28 29 30 31 32 33 34 35 36 37 38 39 40 41 42 43 44 45 46 47 48 49 50

000
ASUS41 KCLE 201202
RWRCLE
OHIO REGIONAL WEATHER ROUNDUP
NATIONAL WEATHER SERVICE CLEVELAND, OH
800 AM EDT MON OCT 20 2014

NOTE: "FAIR" INDICATES FEW OR NO CLOUDS BELOW 12,000 FEET WITH NO
SIGNIFICANT WEATHER AND/OR OBSTRUCTIONS TO VISIBILITY.

OHZ001>008-015>018-024>027-034-035-043-044-201300-
   NORTHWEST OHIO

CITY           SKY/WX    TMP DP  RH WIND       PRES   REMARKS
DEFIANCE       CLOUDY    49  43  80 S9        29.89F
FINDLAY        CLOUDY    49  43  80 S12       29.91F
TOLEDO EXPRESS CLOUDY    47  42  83 S6        29.89F
TOLEDO EXEC    CLOUDY    49  42  77 SW10      29.90F
LIMA           CLOUDY    50  42  74 S10       29.92F
$$

OHZ009>014-019>023-028>033-038-089-201300-
   NORTHEAST OHIO

CITY           SKY/WX    TMP DP  RH WIND       PRES   REMARKS
CLE-HOPKINS    MOCLDY    47  38  71 S8        29.96S
CLE-LAKEFRONT  CLOUDY    50  39  66 S13       29.92F
CUY CO. ARPT   MOCLDY    50  41  71 S9        29.94F
LORAIN-ELYRIA  MOCLDY    46  40  79 S8        29.94F
ASHTABULA      CLOUDY    45  38  76 S8        29.95F
AKRON-CANTON   CLOUDY    46  38  73 SW8       29.96F
WOOSTER        CLOUDY    47  38  71 SW9       29.96F
MANSFIELD      CLOUDY    46  40  79 S9        29.95S
YOUNGSTOWN     CLOUDY    45  38  76 S9        29.96F
$$

OHZ042-051>053-060>062-070>072-077>081-201300-
  SOUTHWEST OHIO

CITY           SKY/WX    TMP DP  RH WIND       PRES   REMARKS
CINC-COVINGTON CLOUDY    48  42  80 S7        30.01S
CINC-LUNKEN    CLOUDY    47  44  90 CALM      30.03S
HAMILTON       CLOUDY    47  45  93 CALM      30.01F
DAYTON         CLOUDY    49  42  77 S9        29.97F
WRIGHT-PAT AFB MOCLDY    49  43  79 S6        29.98S
DAYTON GENERAL CLOUDY    47  43  86 S7        29.98F
WILMINGTON     CLOUDY    46  41  82 S6        30.00S
$$

OHZ036-037-039>041-045>050-054>059-063>069-073>076-082>088-201300-
  CENTRAL AND SOUTHEAST OHIO

CITY           SKY/WX    TMP DP  RH WIND       PRES   REMARKS
COLUMBUS       CLOUDY    46  40  79 S3        29.99S
OSU AIRPORT    CLOUDY    46  41  82 S6        29.99R
BOLTON FIELD   CLOUDY    45  43  93 S6        30.00R
RICKENBACK AFB NOT AVBL
NEWARK         CLOUDY    44  40  85 CALM      29.99S
MARION         CLOUDY    47  40  76 SW9       29.96S
LANCASTER      CLOUDY    47  41  80 S3        30.01R
ZANESVILLE     CLOUDY    44  38  79 S8        30.01S
NEW PHILLY     CLOUDY    45  39  79 SE7       29.99F
$$


USA.gov is the U.S. government's official web portal to all federal, state and local government web resources and services.